Regional Weather Roundup
Issued by NWS Bismarck, ND

Home | Current Version | Previous Version | Text Only | Print | Product List | Glossary On
Versions: 1 2 3 4 5 6 7 8 9 10 11 12 13 14 15 16 17 18 19 20 21 22 23 24 25 26 27 28 29 30 31 32 33 34 35 36 37 38 39 40 41 42 43 44 45 46 47 48 49 50
000
ASUS43 KBIS 011902
RWRBIS

NWR BROADCAST TEXT
NATIONAL WEATHER SERVICE BISMARCK ND
200 PM CDT WED JUL 01 2015

NOTE: "FAIR" INDICATES FEW OR NO CLOUDS BELOW 12,000 FEET WITH NO
SIGNIFICANT WEATHER AND/OR OBSTRUCTIONS TO VISIBILITY.


CITY           SKY/WX    TMP DP  RH WIND       PRES   REMARKS
WILLISTON      PTSUNNY   75  58  55 MISG      29.99S
MINOT          CLOUDY    70  61  73 CALM      29.96S
MINOT AFB      PTSUNNY   68  68 100 CALM      29.96S
BISMARCK       MOSUNNY   76  61  59 CALM      29.96S
DICKINSON      CLOUDY    69  60  73 CALM      30.00S
GARRISON         N/A     74  64  71 VRB5      29.97S
HETTINGER ARPT CLOUDY    71  62  73 N3        30.02S
JAMESTOWN      PTSUNNY   73  60  63 S7        29.96R
HAZEN          MOCLDY    73  59  60 NW3       29.97S
OAKES            N/A     70  66  88 SE10      29.96R
STANLEY        CLOUDY    70  68  94 W7        30.00S
$$

CITY           SKY/WX    TMP DP  RH WIND       PRES   REMARKS
GRAND FORKS    MOSUNNY   77  58  51 CALM      29.93F
GRAND FORKS AF NOT AVBL
DEVILS LAKE    SUNNY     73  57  56 SE7       29.94F
FARGO          PTSUNNY   75  61  61 S8        29.96S
CAVALIER       FAIR      77  54  44 S7        29.94S
GRAFTON        FAIR      77  57  50 CALM      29.95S
LANGDON        FAIR      77  59  53 VRB6      29.97S
$$

CITY           SKY/WX    TMP DP  RH WIND       PRES   REMARKS
ABERDEEN       PTSUNNY   74  64  71 E10       29.94R
MOBRIDGE       PTSUNNY   78  65  63 CALM      29.93R
BUFFALO          N/A     75  62  64 W7        29.96S
RAPID CITY     SUNNY     82  60  47 N20G28    30.00R HAZE
GLASGOW        SUNNY     78  60  53 VRB6      29.99F
SIDNEY         MOSUNNY   73  61  64 N7        30.00S
WOLF POINT     SUNNY     79  60  52 CALM      29.99S HAZE
GLENDIVE       MOSUNNY   75  61  60 NE5       30.01F
MILES CITY     MOSUNNY   83  61  47 W6        29.99S
BAKER          CLOUDY    72  62  71 E8        30.03S
$$

CITY           SKY/WX    TMP DP  RH WIND       PRES   REMARKS
BILLINGS       MOSUNNY   87  49  26 VRB3      30.03F
GREAT FALLS    PTSUNNY   82  49  31 N12       30.04S
$$




USA.gov is the U.S. government's official web portal to all federal, state and local government web resources and services.